Location: Asheville, NC
(35.6000°N, 82.5500°W)
Time: 01:31:41
(UTC-05:00)

STARS - Pass Details

Date: 08 January 2018
Orbit: 625 x 641 km, 98.3° (Epoch: 20 January)

Event Time Altitude Azimuth Distance (km) Brightness Sun altitude
Rises 06:58:33 0° 211° (SSW) 2,897 ? -8.6°
Reaches altitude 10° 07:01:53 10° 239° (WSW) 1,993 ? -7.9°
Maximum altitude 07:03:55 13° 267° (W) 1,798 ? -7.6°
Drops below altitude 10° 07:05:57 10° 295° (WNW) 1,998 ? -7.2°
Enters shadow 07:06:40 - 303° (WNW) 2,149 ? -7.0°
